Time,TemperatureF,DewpointF,PressureIn,WindDirection,WindDirectionDegrees,WindSpeedMPH,WindSpeedGustMPH,Humidity,HourlyPrecipIn,Conditions,Clouds,dailyrainin,SolarRadiationWatts/m^2,SoftwareType,DateUTC
2013-03-22 00:08:00,34.7,32.0,29.97,East,81,4.0,12.0,90,0.05,,,0.00,0,weatherlink.com 1.10,2013-03-22 05:08:00,
2013-03-22 00:23:00,34.7,32.0,29.97,ENE,76,4.0,9.0,91,0.04,,,0.00,0,weatherlink.com 1.10,2013-03-22 05:23:00,
2013-03-22 00:38:00,34.9,33.0,29.97,East,84,6.0,9.0,91,0.05,,,0.03,0,weatherlink.com 1.10,2013-03-22 05:38:00,
2013-03-22 00:53:00,34.9,33.0,29.98,SE,135,7.0,10.0,91,0.06,,,0.05,0,weatherlink.com 1.10,2013-03-22 05:53:00,
2013-03-22 01:08:00,34.9,33.0,29.95,East,93,8.0,11.0,92,0.07,,,0.07,0,weatherlink.com 1.10,2013-03-22 06:08:00,
2013-03-22 01:23:00,34.9,33.0,29.94,East,90,3.0,11.0,92,0.08,,,0.08,0,weatherlink.com 1.10,2013-03-22 06:23:00,
2013-03-22 01:38:00,35.0,33.0,29.94,East,94,3.0,9.0,92,0.05,,,0.09,0,weatherlink.com 1.10,2013-03-22 06:38:00,
2013-03-22 01:53:00,35.3,34.0,29.97,East,98,1.0,6.0,93,0.04,,,0.09,0,weatherlink.com 1.10,2013-03-22 06:53:00,
2013-03-22 02:08:00,35.3,34.0,29.95,ENE,70,2.0,9.0,93,0.03,,,0.10,0,weatherlink.com 1.10,2013-03-22 07:08:00,
2013-03-22 02:23:00,35.5,34.0,29.95,ESE,114,3.0,5.0,93,0.03,,,0.11,0,weatherlink.com 1.10,2013-03-22 07:23:00,
2013-03-22 02:38:00,35.5,34.0,29.95,East,89,6.0,9.0,93,0.02,,,0.11,0,weatherlink.com 1.10,2013-03-22 07:38:00,
2013-03-22 02:53:00,35.5,34.0,29.95,East,87,2.0,8.0,93,0.04,,,0.13,0,weatherlink.com 1.10,2013-03-22 07:53:00,
2013-03-22 03:08:00,35.5,34.0,29.94,East,97,7.0,9.0,93,0.03,,,0.13,0,weatherlink.com 1.10,2013-03-22 08:08:00,
2013-03-22 03:23:00,35.6,34.0,29.93,East,81,4.0,8.0,93,0.02,,,0.13,0,weatherlink.com 1.10,2013-03-22 08:23:00,
2013-03-22 03:38:00,35.8,34.0,29.92,ENE,78,4.0,8.0,93,0.02,,,0.13,0,weatherlink.com 1.10,2013-03-22 08:38:00,
2013-03-22 03:53:00,36.0,34.0,29.91,ESE,115,5.0,9.0,93,0.00,,,0.13,0,weatherlink.com 1.10,2013-03-22 08:53:00,
2013-03-22 04:08:00,36.1,34.0,29.91,ESE,103,2.0,8.0,93,0.00,,,0.13,0,weatherlink.com 1.10,2013-03-22 09:08:00,
2013-03-22 04:23:00,36.2,34.0,29.92,ENE,76,2.0,7.0,93,0.00,,,0.13,0,weatherlink.com 1.10,2013-03-22 09:23:00,
2013-03-22 04:38:00,36.4,35.0,29.91,ESE,116,3.0,5.0,94,0.00,,,0.13,0,weatherlink.com 1.10,2013-03-22 09:38:00,
2013-03-22 04:54:00,36.6,35.0,29.91,SE,126,2.0,4.0,94,0.01,,,0.14,0,weatherlink.com 1.10,2013-03-22 09:54:00,
2013-03-22 05:09:00,36.7,35.0,29.91,ESE,113,4.0,7.0,94,0.01,,,0.14,0,weatherlink.com 1.10,2013-03-22 10:09:00,
2013-03-22 05:24:00,36.9,35.0,29.91,ENE,65,3.0,9.0,94,0.01,,,0.14,0,weatherlink.com 1.10,2013-03-22 10:24:00,
2013-03-22 05:39:00,36.9,35.0,29.91,ESE,113,4.0,9.0,94,0.00,,,0.14,0,weatherlink.com 1.10,2013-03-22 10:39:00,
2013-03-22 05:54:00,37.1,36.0,29.93,East,83,3.0,8.0,94,0.02,,,0.16,0,weatherlink.com 1.10,2013-03-22 10:54:00,
2013-03-22 06:09:00,37.2,36.0,29.93,East,93,5.0,8.0,94,0.03,,,0.17,0,weatherlink.com 1.10,2013-03-22 11:09:00,
2013-03-22 06:24:00,37.3,36.0,29.94,East,93,2.0,8.0,94,0.03,,,0.17,0,weatherlink.com 1.10,2013-03-22 11:24:00,
2013-03-22 06:39:00,37.3,36.0,29.95,East,84,7.0,7.0,94,0.04,,,0.18,0,weatherlink.com 1.10,2013-03-22 11:39:00,
2013-03-22 06:54:00,37.4,36.0,29.95,ESE,115,2.0,8.0,94,0.02,,,0.18,0,weatherlink.com 1.10,2013-03-22 11:54:00,
2013-03-22 07:08:00,37.5,36.0,29.95,ESE,105,2.0,6.0,94,0.02,,,0.19,0,weatherlink.com 1.10,2013-03-22 12:08:00,
2013-03-22 07:25:00,37.7,36.0,29.93,ENE,78,3.0,7.0,94,0.02,,,0.19,5,weatherlink.com 1.10,2013-03-22 12:25:00,
2013-03-22 07:40:00,37.8,36.0,29.95,East,79,4.0,7.0,94,0.01,,,0.19,18,weatherlink.com 1.10,2013-03-22 12:40:00,
2013-03-22 07:55:00,37.9,36.0,29.95,East,100,3.0,10.0,94,0.01,,,0.19,30,weatherlink.com 1.10,2013-03-22 12:55:00,
2013-03-22 08:10:00,38.0,37.0,29.94,East,81,2.0,8.0,94,0.00,,,0.19,21,weatherlink.com 1.10,2013-03-22 13:10:00,
2013-03-22 08:25:00,38.2,37.0,29.94,ESE,107,2.0,8.0,94,0.00,,,0.19,113,weatherlink.com 1.10,2013-03-22 13:25:00,
2013-03-22 08:40:00,38.6,37.0,29.94,SSE,163,3.0,8.0,94,0.00,,,0.19,72,weatherlink.com 1.10,2013-03-22 13:40:00,
2013-03-22 08:56:00,39.1,38.0,29.94,East,90,2.0,8.0,94,0.00,,,0.19,90,weatherlink.com 1.10,2013-03-22 13:56:00,
2013-03-22 09:11:00,39.6,38.0,29.95,East,93,2.0,7.0,94,0.00,,,0.19,125,weatherlink.com 1.10,2013-03-22 14:11:00,
2013-03-22 09:27:00,40.1,39.0,29.95,ESE,122,2.0,8.0,94,0.00,,,0.19,93,weatherlink.com 1.10,2013-03-22 14:27:00,
2013-03-22 09:41:00,40.5,39.0,29.95,NE,48,5.0,8.0,94,0.00,,,0.19,72,weatherlink.com 1.10,2013-03-22 14:41:00,
2013-03-22 09:57:00,40.8,39.0,29.96,East,79,4.0,6.0,93,0.00,,,0.19,44,weatherlink.com 1.10,2013-03-22 14:57:00,
2013-03-22 10:12:00,41.0,39.0,29.96,ESE,116,2.0,5.0,93,0.01,,,0.20,44,weatherlink.com 1.10,2013-03-22 15:12:00,
2013-03-22 10:26:00,41.3,40.0,29.96,East,88,1.0,8.0,93,0.01,,,0.20,72,weatherlink.com 1.10,2013-03-22 15:26:00,
2013-03-22 10:42:00,41.7,40.0,29.96,ENE,76,7.0,7.0,94,0.03,,,0.22,83,weatherlink.com 1.10,2013-03-22 15:42:00,
2013-03-22 10:57:00,41.8,40.0,29.97,East,89,1.0,5.0,94,0.04,,,0.23,49,weatherlink.com 1.10,2013-03-22 15:57:00,
2013-03-22 11:13:00,41.9,40.0,29.96,ESE,108,4.0,7.0,94,0.04,,,0.24,49,weatherlink.com 1.10,2013-03-22 16:13:00,
2013-03-22 11:28:00,42.1,41.0,29.94,ESE,116,5.0,10.0,94,0.06,,,0.26,114,weatherlink.com 1.10,2013-03-22 16:28:00,
2013-03-22 11:43:00,42.1,41.0,29.94,East,99,1.0,16.0,94,0.04,,,0.26,104,weatherlink.com 1.10,2013-03-22 16:43:00,
2013-03-22 11:58:00,42.3,41.0,29.94,ENE,60,6.0,11.0,94,0.03,,,0.26,97,weatherlink.com 1.10,2013-03-22 16:58:00,
2013-03-22 12:13:00,42.4,41.0,29.94,ESE,115,4.0,7.0,93,0.02,,,0.26,93,weatherlink.com 1.10,2013-03-22 17:13:00,
2013-03-22 12:28:00,42.7,41.0,29.94,ENE,78,3.0,7.0,93,0.00,,,0.26,76,weatherlink.com 1.10,2013-03-22 17:28:00,
2013-03-22 12:44:00,42.9,41.0,29.94,East,85,2.0,7.0,92,0.00,,,0.26,77,weatherlink.com 1.10,2013-03-22 17:44:00,
2013-03-22 12:58:00,43.1,41.0,29.93,SE,135,4.0,7.0,92,0.00,,,0.26,60,weatherlink.com 1.10,2013-03-22 17:58:00,
2013-03-22 13:13:00,43.3,41.0,29.93,ESE,121,3.0,8.0,92,0.00,,,0.26,63,weatherlink.com 1.10,2013-03-22 18:13:00,
2013-03-22 13:30:00,43.6,42.0,29.92,ESE,113,2.0,8.0,92,0.01,,,0.27,105,weatherlink.com 1.10,2013-03-22 18:30:00,
2013-03-22 13:44:00,43.9,42.0,29.91,East,100,2.0,6.0,92,0.01,,,0.27,118,weatherlink.com 1.10,2013-03-22 18:44:00,
2013-03-22 14:00:00,44.2,42.0,29.91,ESE,119,3.0,5.0,92,0.01,,,0.27,107,weatherlink.com 1.10,2013-03-22 19:00:00,
2013-03-22 14:15:00,44.4,42.0,29.90,SE,124,0.0,8.0,91,0.01,,,0.27,109,weatherlink.com 1.10,2013-03-22 19:15:00,
2013-03-22 14:29:00,44.7,42.0,29.89,SE,127,5.0,9.0,91,0.00,,,0.27,113,weatherlink.com 1.10,2013-03-22 19:29:00,
2013-03-22 14:46:00,44.9,43.0,29.88,ESE,103,2.0,6.0,91,0.00,,,0.27,105,weatherlink.com 1.10,2013-03-22 19:46:00,
2013-03-22 15:01:00,45.1,42.0,29.88,East,93,3.0,9.0,90,0.00,,,0.27,107,weatherlink.com 1.10,2013-03-22 20:01:00,
2013-03-22 15:16:00,45.3,43.0,29.88,ESE,110,3.0,10.0,90,0.00,,,0.27,83,weatherlink.com 1.10,2013-03-22 20:16:00,
2013-03-22 15:31:00,45.6,43.0,29.87,ESE,115,3.0,8.0,90,0.00,,,0.27,120,weatherlink.com 1.10,2013-03-22 20:31:00,
2013-03-22 16:02:00,46.1,43.0,29.87,SE,128,3.0,9.0,90,0.00,,,0.27,104,weatherlink.com 1.10,2013-03-22 21:02:00,
2013-03-22 16:16:00,46.3,44.0,29.87,East,97,3.0,9.0,90,0.00,,,0.27,91,weatherlink.com 1.10,2013-03-22 21:16:00,
2013-03-22 16:32:00,46.3,43.0,29.88,East,85,1.0,10.0,89,0.00,,,0.27,60,weatherlink.com 1.10,2013-03-22 21:32:00,
2013-03-22 16:48:00,46.5,44.0,29.88,East,83,1.0,8.0,89,0.00,,,0.27,56,weatherlink.com 1.10,2013-03-22 21:48:00,
2013-03-22 17:03:00,46.7,44.0,29.88,SE,133,3.0,4.0,89,0.00,,,0.27,35,weatherlink.com 1.10,2013-03-22 22:03:00,
2013-03-22 17:17:00,46.8,44.0,29.89,ENE,66,2.0,5.0,89,0.00,,,0.27,32,weatherlink.com 1.10,2013-03-22 22:17:00,
2013-03-22 17:33:00,46.8,44.0,29.89,ENE,65,2.0,5.0,88,0.00,,,0.27,42,weatherlink.com 1.10,2013-03-22 22:33:00,
2013-03-22 17:48:00,46.8,44.0,29.89,ENE,64,3.0,4.0,89,0.00,,,0.27,26,weatherlink.com 1.10,2013-03-22 22:48:00,
2013-03-22 18:03:00,46.9,44.0,29.90,ENE,72,2.0,4.0,88,0.00,,,0.27,14,weatherlink.com 1.10,2013-03-22 23:03:00,
2013-03-22 18:18:00,46.9,44.0,29.90,East,82,2.0,5.0,89,0.00,,,0.27,14,weatherlink.com 1.10,2013-03-22 23:18:00,
2013-03-22 18:35:00,46.9,44.0,29.90,ENE,75,3.0,5.0,89,0.00,,,0.27,7,weatherlink.com 1.10,2013-03-22 23:35:00,
2013-03-22 18:50:00,46.9,44.0,29.90,NNE,32,1.0,5.0,89,0.00,,,0.27,5,weatherlink.com 1.10,2013-03-22 23:50:00,
2013-03-22 19:05:00,46.8,44.0,29.89,East,92,2.0,7.0,89,0.00,,,0.27,0,weatherlink.com 1.10,2013-03-23 00:05:00,
2013-03-22 19:20:00,46.8,44.0,29.89,East,82,2.0,7.0,89,0.00,,,0.27,0,weatherlink.com 1.10,2013-03-23 00:20:00,
2013-03-22 19:37:00,46.8,44.0,29.91,ENE,76,1.0,7.0,89,0.00,,,0.27,0,weatherlink.com 1.10,2013-03-23 00:37:00,
2013-03-22 19:50:00,46.8,44.0,29.91,East,80,3.0,7.0,89,0.00,,,0.27,0,weatherlink.com 1.10,2013-03-23 00:50:00,
2013-03-22 20:05:00,46.7,44.0,29.91,ENE,76,2.0,4.0,89,0.00,,,0.27,0,weatherlink.com 1.10,2013-03-23 01:05:00,
2013-03-22 20:20:00,46.7,44.0,29.91,NNE,31,2.0,4.0,89,0.00,,,0.27,0,weatherlink.com 1.10,2013-03-23 01:20:00,
2013-03-22 20:36:00,46.7,44.0,29.92,ENE,76,2.0,7.0,89,0.00,,,0.27,0,weatherlink.com 1.10,2013-03-23 01:36:00,
2013-03-22 20:50:00,46.7,44.0,29.92,ENE,73,2.0,4.0,89,0.00,,,0.27,0,weatherlink.com 1.10,2013-03-23 01:50:00,
2013-03-22 21:06:00,46.7,44.0,29.93,East,83,3.0,4.0,89,0.00,,,0.27,0,weatherlink.com 1.10,2013-03-23 02:06:00,
2013-03-22 21:21:00,46.7,44.0,29.92,ESE,106,3.0,5.0,89,0.00,,,0.27,0,weatherlink.com 1.10,2013-03-23 02:21:00,
2013-03-22 21:36:00,46.7,44.0,29.92,East,94,2.0,7.0,90,0.00,,,0.27,0,weatherlink.com 1.10,2013-03-23 02:36:00,
2013-03-22 21:52:00,46.6,44.0,29.93,ESE,114,2.0,5.0,90,0.00,,,0.27,0,weatherlink.com 1.10,2013-03-23 02:52:00,
2013-03-22 22:06:00,46.6,44.0,29.94,NE,49,3.0,6.0,90,0.00,,,0.27,0,weatherlink.com 1.10,2013-03-23 03:06:00,
2013-03-22 22:22:00,46.5,44.0,29.94,ESE,113,1.0,3.0,91,0.00,,,0.27,0,weatherlink.com 1.10,2013-03-23 03:22:00,
2013-03-22 22:37:00,46.4,44.0,29.94,ENE,67,1.0,4.0,91,0.00,,,0.27,0,weatherlink.com 1.10,2013-03-23 03:37:00,
2013-03-22 22:52:00,46.3,44.0,29.93,ESE,112,1.0,4.0,91,0.00,,,0.27,0,weatherlink.com 1.10,2013-03-23 03:52:00,
2013-03-22 23:07:00,46.2,44.0,29.94,NE,47,0.0,5.0,92,0.00,,,0.27,0,weatherlink.com 1.10,2013-03-23 04:07:00,
2013-03-22 23:22:00,46.1,44.0,29.93,ENE,64,2.0,3.0,92,0.00,,,0.27,0,weatherlink.com 1.10,2013-03-23 04:22:00,
2013-03-22 23:37:00,46.1,44.0,29.93,ENE,70,3.0,4.0,92,0.00,,,0.27,0,weatherlink.com 1.10,2013-03-23 04:37:00,
2013-03-22 23:52:00,45.9,44.0,29.92,ENE,72,0.0,4.0,93,0.00,,,0.27,0,weatherlink.com 1.10,2013-03-23 04:52:00,